{"data":{"norad_id":68674,"epoch":"2026-05-25T03:09:27.586656Z","epoch_age_seconds":56890,"freshness":"FRESH","line1":"1 68674U 26077N   26145.13156929  .00019078  00000+0  59209-3 0  9999","line2":"2 68674  97.2871  16.7172 0004723 125.9023 234.2659 15.33418534  6878","mean_motion":15.33418534,"eccentricity":0.0004723,"inclination_deg":97.2871,"raan_deg":16.7172,"arg_perigee_deg":125.9023,"mean_anomaly_deg":234.2659,"bstar":0.00059209,"rev_number":687,"period_min":93.907825428697,"perigee_km":462.38961246846,"apogee_km":468.85422714411,"semimajor_km":6843.7589198063,"source":"CELESTRAK","updated_at":"2026-05-25T13:38:21.994046Z"}}